Regional Weather Roundup
Issued by NWS Little Rock, AR

Home | Current Version | Previous Version | Text Only | Print | Product List | Glossary Off
Versions: 1 2 3 4 5 6 7 8 9 10 11 12 13 14 15 16 17 18 19 20 21 22 23 24 25 26 27 28 29 30 31 32 33 34 35 36 37 38 39 40 41 42 43 44 45 46 47 48 49 50

000
ASUS44 KLZK 280305
RWRLZK

WEATHER ROUNDUP FOR ARKANSAS
NATIONAL WEATHER SERVICE LITTLE ROCK AR
1000 PM CDT MON APR 27 2015

NOTE: "FAIR" INDICATES FEW OR NO CLOUDS BELOW 12,000 FEET WITH NO
SIGNIFICANT WEATHER AND/OR OBSTRUCTIONS TO VISIBILITY.

ARZ001-003-010-029-280400-
NORTHWEST ARKANSAS

CITY           SKY/WX    TMP DP  RH WIND       PRES   REMARKS
FAYETTEVILLE   LGT RAIN  51  51 100 CALM      30.01R
FORT SMITH     CLOUDY    61  39  44 E6        29.98R
HARRISON       MOCLDY    58  35  42 NE8       30.01R
BENTONVILLE    CLOUDY    59  36  41 CALM      30.03R
ROGERS         CLOUDY    57  38  48 NE6       30.03R
SILOAM SPGS    CLOUDY   N/A N/A N/A CALM      30.02R
HIGHFILL       LGT RAIN  57  42  57 NE6       30.01R
$$

ARZ004-005-016-280400-
NORTH CENTRAL ARKANSAS

CITY           SKY/WX    TMP DP  RH WIND       PRES   REMARKS
BATESVILLE     MOCLDY    57  39  51 NE8       29.99S
FLIPPIN        PTCLDY    57  36  44 NE7       30.00R
MTN HOME       PTCLDY    55  35  47 NE3       30.00R
$$

ARZ040-041-280400-
WEST CENTRAL ARKANSAS

CITY           SKY/WX    TMP DP  RH WIND       PRES   REMARKS
MENA           CLOUDY    59  43  55 E9        29.93S
MOUNT IDA      PTCLDY    57  40  52 CALM      29.92S
$$

ARZ009-017-025-026-028-280400-
NORTHEAST ARKANSAS

CITY           SKY/WX    TMP DP  RH WIND       PRES   REMARKS
CORNING          N/A     55  45  67 NE10      30.03R
JONESBORO      PTCLDY    55  42  61 NE9       29.99S
NEWPORT        PTCLDY    55  45  69 NE12      30.00R
WALNUT RIDGE   PTCLDY    55  41  58 NE9       30.00S
BLYTHEVILLE    PTCLDY    52  45  77 NE8       30.00S
$$

ARZ022-023-033-042-044-280400-
CENTRAL ARKANSAS

CITY           SKY/WX    TMP DP  RH WIND       PRES   REMARKS
LITTLE ROCK    CLOUDY    59  41  51 NE8       29.95S
N LITTLE ROCK  CLOUDY    60  44  57 NE13      29.95S
JACKSONVILLE   CLOUDY    61  42  49 NE13      29.96R
SEARCY         CLOUDY    58  44  60 NE7       29.99R
HOT SPRINGS    PTCLDY    58  41  53 E14       29.93S
RUSSELLVILLE   CLOUDY    60  40  47 NE8       29.97R
CLINTON        FAIR      54  48  82 CALM      30.02R
$$

ARZ036-280400-
EAST ARKANSAS

CITY           SKY/WX    TMP DP  RH WIND       PRES   REMARKS
WEST MEMPHIS   CLEAR     57  43  59 NE8       29.95R
$$

ARZ050-053-066-070-073-280400-
SOUTHWEST ARKANSAS

CITY           SKY/WX    TMP DP  RH WIND       PRES   REMARKS
ARKADELPHIA    FAIR      58  46  64 NE6       29.94R
CAMDEN         MOCLDY    59  43  55 N7        29.91R
TEXARKANA      MOCLDY    60  46  59 NE12G24   29.89R
EL DORADO      CLEAR     58  46  64 NE8       29.90R
DE QUEEN       LGT RAIN  60  42  51 E12G20    29.89R
$$

ARZ056-057-069-280400-
SOUTHEAST ARKANSAS

CITY           SKY/WX    TMP DP  RH WIND       PRES   REMARKS
PINE BLUFF     PTCLDY    57  44  62 NE9       29.94R
STUTTGART      CLOUDY    57  43  58 NE13      29.95R
MONTICELLO     CLEAR     59  46  62 NE8       29.91R

$$




USA.gov is the U.S. government's official web portal to all federal, state and local government web resources and services.